Hourly Weather Roundup
Issued by NWS Central Illinois

Home | Current Version | Previous Version | Text Only | Print | Product List | Glossary On
Versions: 1 2 3 4 5 6 7 8 9 10 11 12 13 14 15 16 17 18 19 20 21 22 23 24 25 26 27 28 29 30 31 32 33 34 35 36 37 38 39 40 41 42 43 44 45 46 47 48 49 50
455
NZUS43 KILX 151410
HWRILX

Area Weather Roundup
National Weather Service Lincoln IL
800 AM CST FRI DEC 15 2017

NOTE:  "FAIR" indicates few or no clouds below 12,000 feet, with
       no sigificant weather and/or obstructions to visibility.


CITY           SKY/WX    TMP DP  RH WIND       PRES   REMARKS
Bloomington    CLOUDY    27  22  81 W14       30.01R WCI  16
Champaign      CLOUDY    27  20  75 SW13      30.02S WCI  16
Danville       CLOUDY    26  19  76 SW12      29.98S WCI  15
Decatur        CLOUDY    28  21  75 W9        30.04R WCI  19
Effingham      CLOUDY    29  22  77 SW7       30.09S WCI  22
Flora          PTCLDY    30  22  73 SW7       30.10R WCI  23
Galesburg      CLOUDY    26  24  91 W7        30.04R WCI  19
Jacksonville   CLOUDY    31  23  72 W9        30.07R WCI  23
Lacon          CLOUDY    27  20  74 W8        30.02R WCI  19
Lawrenceville  CLEAR     28  19  69 SW5       30.09F WCI  23
Litchfield     CLOUDY    30  23  74 SW10      30.07S WCI  21
$$


CITY           SKY/WX    TMP DP  RH WIND       PRES   REMARKS
Lincoln        CLOUDY    30  24  76 W5        30.04R WCI  25
Macomb         CLEAR     26  22  85 W8        30.07R WCI  17
Mattoon        CLOUDY    27  20  75 SW8       30.03F WCI  19
Mt Carmel AP   CLEAR     27  20  76 SW6       30.09S WCI  20
Olney-Noble AP CLEAR     27  19  72 CALM      30.10R
Paris AP       CLOUDY    26  21  79 SW9       30.04F WCI  17
Peoria         CLOUDY    28  22  78 W9        30.04R WCI  19
Pontiac        MOCLDY    28  22  78 W16       30.00R WCI  16
Rantoul        CLOUDY    29  22  75 W14       30.00S WCI  19
Robinson       PTCLDY    27  20  76 W9        30.09S WCI  18
Springfield    CLOUDY    31  23  72 W9        30.06R WCI  23
Taylorville    CLOUDY    29  22  73 W8        30.06R WCI  21
$$

...REGIONAL REPORTS...


CITY           SKY/WX    TMP DP  RH WIND       PRES   REMARKS
Chicago O`Hare FLURRIES  26  17  68 W12       29.91S WCI  16
Kankakee       CLOUDY    28  19  71 W16       29.97S WCI  15
Moline         CLOUDY    28  19  69 SW10      30.01S WCI  19
Mount Sterling CLOUDY    30  24  78 W8        30.06R WCI  22
Mount Vernon   PTCLDY    28  23  81 W5        30.12R WCI  23
Pittsfield     CLOUDY    32  25  76 W6        30.08R WCI  27
Quincy         CLOUDY    31  24  75 NW8       30.06S WCI  23
Rockford       FLURRIES  26  15  63 W17       29.95R WCI  13
$$


CITY           SKY/WX    TMP DP  RH WIND       PRES   REMARKS
Burlington     CLEAR     26  23  88 W6        30.04S WCI  19
Cedar Rapids   MOCLDY    22  18  85 SW7       29.99S WCI  13
Des Moines     CLOUDY    31  23  72 SW8       30.01F WCI  23
Kirksville     CLEAR     30  24  78 W6        30.08S WCI  24
Ottumwa        CLOUDY    27  23  85 W8        30.04S WCI  19
St Louis       MOCLDY    32  24  72 SW7       30.09F WCI  26
$$


CITY           SKY/WX    TMP DP  RH WIND       PRES   REMARKS
Terre Haute    CLOUDY    27  18  69 W9        30.05S WCI  18
Evansville     CLOUDY    30  21  69 W10       30.13R WCI  21
Indianapolis   MOCLDY    27  17  66 SW10      30.00F WCI  17
Lafayette      CLOUDY    24  19  81 SW7       29.99F WCI  16
Madison        FLURRIES  23  15  71 NW9       29.89S WCI  13
Milwaukee      CLOUDY    24  16  71 W13       29.87S WCI  12
$$






USA.gov is the U.S. government's official web portal to all federal, state and local government web resources and services.